owner,sensor,date,latitude,longitude,vertical_datum,sea_water_practical_salinity,qcFlag 
LUMCON,ioos:station:LUMCON:101:1,2017-03-01T00:00:00Z,29.2533,-90.6633,1.29,15.56,1111122 
LUMCON,ioos:station:LUMCON:101:1,2017-03-01T00:15:00Z,29.2533,-90.6633,1.3,15.55,1111122 
LUMCON,ioos:station:LUMCON:101:1,2017-03-01T00:30:00Z,29.2533,-90.6633,1.3,15.49,1111122 
LUMCON,ioos:station:LUMCON:101:1,2017-03-01T00:45:00Z,29.2533,-90.6633,1.3,15.47,1111122 
LUMCON,ioos:station:LUMCON:101:1,2017-03-01T01:00:00Z,29.2533,-90.6633,1.3,15.54,1111122 
LUMCON,ioos:station:LUMCON:101:1,2017-03-01T01:15:00Z,29.2533,-90.6633,1.3,15.51,1111122 
LUMCON,ioos:station:LUMCON:101:1,2017-03-01T01:30:00Z,29.2533,-90.6633,1.3,15.53,1111122 
LUMCON,ioos:station:LUMCON:101:1,2017-03-01T01:45:00Z,29.2533,-90.6633,1.3,15.59,1111122 
LUMCON,ioos:station:LUMCON:101:1,2017-03-01T02:00:00Z,29.2533,-90.6633,1.31,15.62,1111122 
LUMCON,ioos:station:LUMCON:101:1,2017-03-01T02:15:00Z,29.2533,-90.6633,1.31,15.64,1111122 
LUMCON,ioos:station:LUMCON:101:1,2017-03-01T02:30:00Z,29.2533,-90.6633,1.32,15.7,1111122 
LUMCON,ioos:station:LUMCON:101:1,2017-03-01T02:45:00Z,29.2533,-90.6633,1.31,15.66,1111122 
LUMCON,ioos:station:LUMCON:101:1,2017-03-01T03:00:00Z,29.2533,-90.6633,1.31,15.69,1111122 
LUMCON,ioos:station:LUMCON:101:1,2017-03-01T03:15:00Z,29.2533,-90.6633,1.32,15.77,1111122 
LUMCON,ioos:station:LUMCON:101:1,2017-03-01T03:30:00Z,29.2533,-90.6633,1.33,15.75,1111122 
LUMCON,ioos:station:LUMCON:101:1,2017-03-01T03:45:00Z,29.2533,-90.6633,1.33,15.78,1111122 
LUMCON,ioos:station:LUMCON:101:1,2017-03-01T04:00:00Z,29.2533,-90.6633,1.34,15.82,1111122 
LUMCON,ioos:station:LUMCON:101:1,2017-03-01T04:15:00Z,29.2533,-90.6633,1.33,15.83,1111122 
LUMCON,ioos:station:LUMCON:101:1,2017-03-01T04:30:00Z,29.2533,-90.6633,1.33,15.9,1111122 
LUMCON,ioos:station:LUMCON:101:1,2017-03-01T04:45:00Z,29.2533,-90.6633,1.34,15.89,1111122 
LUMCON,ioos:station:LUMCON:101:1,2017-03-01T05:00:00Z,29.2533,-90.6633,1.33,15.9,1111122 
LUMCON,ioos:station:LUMCON:101:1,2017-03-01T05:15:00Z,29.2533,-90.6633,1.33,15.88,1111122 
LUMCON,ioos:station:LUMCON:101:1,2017-03-01T05:30:00Z,29.2533,-90.6633,1.34,15.88,1111122 
LUMCON,ioos:station:LUMCON:101:1,2017-03-01T05:45:00Z,29.2533,-90.6633,1.34,15.92,1111122 
LUMCON,ioos:station:LUMCON:101:1,2017-03-01T06:00:00Z,29.2533,-90.6633,1.35,15.92,1111122 
LUMCON,ioos:station:LUMCON:101:1,2017-03-01T06:15:00Z,29.2533,-90.6633,1.35,15.87,1111122 
LUMCON,ioos:station:LUMCON:101:1,2017-03-01T06:30:00Z,29.2533,-90.6633,1.36,16.14,1111122 
LUMCON,ioos:station:LUMCON:101:1,2017-03-01T06:45:00Z,29.2533,-90.6633,1.37,16.3,1111122 
LUMCON,ioos:station:LUMCON:101:1,2017-03-01T07:00:00Z,29.2533,-90.6633,1.38,16.35,1111122 
LUMCON,ioos:station:LUMCON:101:1,2017-03-01T07:15:00Z,29.2533,-90.6633,1.38,16.49,1111122 
LUMCON,ioos:station:LUMCON:101:1,2017-03-01T07:30:00Z,29.2533,-90.6633,1.39,16.57,1111122 
LUMCON,ioos:station:LUMCON:101:1,2017-03-01T07:45:00Z,29.2533,-90.6633,1.39,16.67,1111122 
LUMCON,ioos:station:LUMCON:101:1,2017-03-01T08:00:00Z,29.2533,-90.6633,1.4,16.75,1111122 
LUMCON,ioos:station:LUMCON:101:1,2017-03-01T08:15:00Z,29.2533,-90.6633,1.4,16.81,1111122 
LUMCON,ioos:station:LUMCON:101:1,2017-03-01T08:30:00Z,29.2533,-90.6633,1.4,16.87,1111122 
LUMCON,ioos:station:LUMCON:101:1,2017-03-01T08:45:00Z,29.2533,-90.6633,1.41,16.9,1111122 
LUMCON,ioos:station:LUMCON:101:1,2017-03-01T09:00:00Z,29.2533,-90.6633,1.41,16.92,1111122 
LUMCON,ioos:station:LUMCON:101:1,2017-03-01T09:15:00Z,29.2533,-90.6633,1.41,16.92,1111122 
LUMCON,ioos:station:LUMCON:101:1,2017-03-01T09:30:00Z,29.2533,-90.6633,1.42,16.9,1111122 
LUMCON,ioos:station:LUMCON:101:1,2017-03-01T09:45:00Z,29.2533,-90.6633,1.43,16.8,1111122 
LUMCON,ioos:station:LUMCON:101:1,2017-03-01T10:00:00Z,29.2533,-90.6633,1.43,16.84,1111122 
LUMCON,ioos:station:LUMCON:101:1,2017-03-01T10:15:00Z,29.2533,-90.6633,1.43,16.91,1111122 
LUMCON,ioos:station:LUMCON:101:1,2017-03-01T10:30:00Z,29.2533,-90.6633,1.43,16.88,1111122 
LUMCON,ioos:station:LUMCON:101:1,2017-03-01T10:45:00Z,29.2533,-90.6633,1.43,17.03,1111122 
LUMCON,ioos:station:LUMCON:101:1,2017-03-01T11:00:00Z,29.2533,-90.6633,1.43,17.07,1111122 
LUMCON,ioos:station:LUMCON:101:1,2017-03-01T11:15:00Z,29.2533,-90.6633,1.43,17.09,1111122 
LUMCON,ioos:station:LUMCON:101:1,2017-03-01T11:30:00Z,29.2533,-90.6633,1.42,17.09,1111122 
LUMCON,ioos:station:LUMCON:101:1,2017-03-01T11:45:00Z,29.2533,-90.6633,1.42,16.9,1111122 
LUMCON,ioos:station:LUMCON:101:1,2017-03-01T12:00:00Z,29.2533,-90.6633,1.4,16.74,1111122 
LUMCON,ioos:station:LUMCON:101:1,2017-03-01T12:15:00Z,29.2533,-90.6633,1.38,16.7,1111122 
LUMCON,ioos:station:LUMCON:101:1,2017-03-01T12:30:00Z,29.2533,-90.6633,1.37,16.73,1111122 
LUMCON,ioos:station:LUMCON:101:1,2017-03-01T12:45:00Z,29.2533,-90.6633,1.36,16.71,1111122 
LUMCON,ioos:station:LUMCON:101:1,2017-03-01T13:00:00Z,29.2533,-90.6633,1.36,16.78,1111122 
LUMCON,ioos:station:LUMCON:101:1,2017-03-01T13:15:00Z,29.2533,-90.6633,1.35,16.72,1111122 
LUMCON,ioos:station:LUMCON:101:1,2017-03-01T13:30:00Z,29.2533,-90.6633,1.34,16.71,1111122 
LUMCON,ioos:station:LUMCON:101:1,2017-03-01T13:45:00Z,29.2533,-90.6633,1.34,16.64,1111122 
LUMCON,ioos:station:LUMCON:101:1,2017-03-01T14:00:00Z,29.2533,-90.6633,1.33,16.54,1111122 
LUMCON,ioos:station:LUMCON:101:1,2017-03-01T14:15:00Z,29.2533,-90.6633,1.32,16.47,1111122 
LUMCON,ioos:station:LUMCON:101:1,2017-03-01T14:30:00Z,29.2533,-90.6633,1.31,16.36,1111122 
LUMCON,ioos:station:LUMCON:101:1,2017-03-01T14:45:00Z,29.2533,-90.6633,1.29,16.22,1111122 
LUMCON,ioos:station:LUMCON:101:1,2017-03-01T15:00:00Z,29.2533,-90.6633,1.28,16.08,1111122 
LUMCON,ioos:station:LUMCON:101:1,2017-03-01T15:15:00Z,29.2533,-90.6633,1.28,15.94,1111122 
LUMCON,ioos:station:LUMCON:101:1,2017-03-01T15:30:00Z,29.2533,-90.6633,1.27,15.81,1111122 
LUMCON,ioos:station:LUMCON:101:1,2017-03-01T15:45:00Z,29.2533,-90.6633,1.26,15.69,1111122 
LUMCON,ioos:station:LUMCON:101:1,2017-03-01T16:00:00Z,29.2533,-90.6633,1.26,15.55,1111122 
LUMCON,ioos:station:LUMCON:101:1,2017-03-01T16:15:00Z,29.2533,-90.6633,1.26,15.42,1111122 
LUMCON,ioos:station:LUMCON:101:1,2017-03-01T16:30:00Z,29.2533,-90.6633,1.26,15.27,1111122 
LUMCON,ioos:station:LUMCON:101:1,2017-03-01T16:45:00Z,29.2533,-90.6633,1.25,15.1,1111122 
LUMCON,ioos:station:LUMCON:101:1,2017-03-01T17:00:00Z,29.2533,-90.6633,1.25,14.87,1111122 
LUMCON,ioos:station:LUMCON:101:1,2017-03-01T17:15:00Z,29.2533,-90.6633,1.24,14.72,1111122 
LUMCON,ioos:station:LUMCON:101:1,2017-03-01T17:30:00Z,29.2533,-90.6633,1.23,14.56,1111122 
LUMCON,ioos:station:LUMCON:101:1,2017-03-01T17:45:00Z,29.2533,-90.6633,1.23,14.45,1111122 
LUMCON,ioos:station:LUMCON:101:1,2017-03-01T18:00:00Z,29.2533,-90.6633,1.22,14.35,1111122 
LUMCON,ioos:station:LUMCON:101:1,2017-03-01T18:15:00Z,29.2533,-90.6633,1.21,14.23,1111122 
LUMCON,ioos:station:LUMCON:101:1,2017-03-01T18:30:00Z,29.2533,-90.6633,1.22,14.09,1111122 
LUMCON,ioos:station:LUMCON:101:1,2017-03-01T18:45:00Z,29.2533,-90.6633,1.22,13.98,1111122 
LUMCON,ioos:station:LUMCON:101:1,2017-03-01T19:00:00Z,29.2533,-90.6633,1.22,13.88,1111122 
LUMCON,ioos:station:LUMCON:101:1,2017-03-01T19:15:00Z,29.2533,-90.6633,1.22,13.79,1111122 
LUMCON,ioos:station:LUMCON:101:1,2017-03-01T19:30:00Z,29.2533,-90.6633,1.21,13.68,1111122 
LUMCON,ioos:station:LUMCON:101:1,2017-03-01T19:45:00Z,29.2533,-90.6633,1.22,13.55,1111122 
LUMCON,ioos:station:LUMCON:101:1,2017-03-01T20:00:00Z,29.2533,-90.6633,1.22,13.47,1111122 
LUMCON,ioos:station:LUMCON:101:1,2017-03-01T20:15:00Z,29.2533,-90.6633,1.23,13.4,1111122 
LUMCON,ioos:station:LUMCON:101:1,2017-03-01T20:30:00Z,29.2533,-90.6633,1.2,13.36,1111122 
LUMCON,ioos:station:LUMCON:101:1,2017-03-01T20:45:00Z,29.2533,-90.6633,1.19,13.26,1111122 
LUMCON,ioos:station:LUMCON:101:1,2017-03-01T21:00:00Z,29.2533,-90.6633,1.18,13.12,1111122 
LUMCON,ioos:station:LUMCON:101:1,2017-03-01T21:15:00Z,29.2533,-90.6633,1.18,12.98,1111122 
LUMCON,ioos:station:LUMCON:101:1,2017-03-01T21:30:00Z,29.2533,-90.6633,1.19,12.95,1111122 
LUMCON,ioos:station:LUMCON:101:1,2017-03-01T21:45:00Z,29.2533,-90.6633,1.2,12.87,1111122 
LUMCON,ioos:station:LUMCON:101:1,2017-03-01T22:00:00Z,29.2533,-90.6633,1.2,12.84,1111122 
LUMCON,ioos:station:LUMCON:101:1,2017-03-01T22:15:00Z,29.2533,-90.6633,1.2,12.78,1111122 
LUMCON,ioos:station:LUMCON:101:1,2017-03-01T22:30:00Z,29.2533,-90.6633,1.2,12.78,1111122 
LUMCON,ioos:station:LUMCON:101:1,2017-03-01T22:45:00Z,29.2533,-90.6633,1.21,13.05,1111122 
LUMCON,ioos:station:LUMCON:101:1,2017-03-01T23:00:00Z,29.2533,-90.6633,1.2,13.97,1111122 
LUMCON,ioos:station:LUMCON:101:1,2017-03-01T23:15:00Z,29.2533,-90.6633,1.2,14.02,1111122 
LUMCON,ioos:station:LUMCON:101:1,2017-03-01T23:30:00Z,29.2533,-90.6633,1.19,13.82,1111122 
LUMCON,ioos:station:LUMCON:101:1,2017-03-01T23:45:00Z,29.2533,-90.6633,1.18,12.94,1111122 
LUMCON,ioos:station:LUMCON:101:1,2017-03-02T00:00:00Z,29.2533,-90.6633,1.18,12.75,1111122 
LUMCON,ioos:station:LUMCON:101:1,2017-03-02T00:15:00Z,29.2533,-90.6633,1.17,12.66,1111122 
LUMCON,ioos:station:LUMCON:101:1,2017-03-02T00:30:00Z,29.2533,-90.6633,1.16,12.64,1111122 
LUMCON,ioos:station:LUMCON:101:1,2017-03-02T00:45:00Z,29.2533,-90.6633,1.15,12.51,1111122 
LUMCON,ioos:station:LUMCON:101:1,2017-03-02T01:00:00Z,29.2533,-90.6633,1.15,12.38,1111122 
LUMCON,ioos:station:LUMCON:101:1,2017-03-02T01:15:00Z,29.2533,-90.6633,1.14,12.3,1111122 
LUMCON,ioos:station:LUMCON:101:1,2017-03-02T01:30:00Z,29.2533,-90.6633,1.13,12.26,1111122 
LUMCON,ioos:station:LUMCON:101:1,2017-03-02T01:45:00Z,29.2533,-90.6633,1.12,12.24,1111122 
LUMCON,ioos:station:LUMCON:101:1,2017-03-02T02:00:00Z,29.2533,-90.6633,1.11,12.19,1111122 
LUMCON,ioos:station:LUMCON:101:1,2017-03-02T02:15:00Z,29.2533,-90.6633,1.11,12.16,1111122 
LUMCON,ioos:station:LUMCON:101:1,2017-03-02T02:30:00Z,29.2533,-90.6633,1.11,12.11,1111122 
LUMCON,ioos:station:LUMCON:101:1,2017-03-02T02:45:00Z,29.2533,-90.6633,1.11,12.07,1111122 
LUMCON,ioos:station:LUMCON:101:1,2017-03-02T03:00:00Z,29.2533,-90.6633,1.11,12.03,1111122 
LUMCON,ioos:station:LUMCON:101:1,2017-03-02T03:15:00Z,29.2533,-90.6633,1.11,11.96,1111122 
LUMCON,ioos:station:LUMCON:101:1,2017-03-02T03:30:00Z,29.2533,-90.6633,1.1,12.02,1111122 
LUMCON,ioos:station:LUMCON:101:1,2017-03-02T03:45:00Z,29.2533,-90.6633,1.08,11.93,1111122 
LUMCON,ioos:station:LUMCON:101:1,2017-03-02T04:00:00Z,29.2533,-90.6633,1.07,11.83,1111122 
LUMCON,ioos:station:LUMCON:101:1,2017-03-02T04:15:00Z,29.2533,-90.6633,1.06,11.71,1111122 
LUMCON,ioos:station:LUMCON:101:1,2017-03-02T04:30:00Z,29.2533,-90.6633,1.06,11.67,1111122 
LUMCON,ioos:station:LUMCON:101:1,2017-03-02T04:45:00Z,29.2533,-90.6633,1.05,11.54,1111122 
LUMCON,ioos:station:LUMCON:101:1,2017-03-02T05:00:00Z,29.2533,-90.6633,1.04,11.49,1111122 
LUMCON,ioos:station:LUMCON:101:1,2017-03-02T05:15:00Z,29.2533,-90.6633,1.04,11.39,1111122 
LUMCON,ioos:station:LUMCON:101:1,2017-03-02T05:30:00Z,29.2533,-90.6633,1.04,11.45,1111122 
LUMCON,ioos:station:LUMCON:101:1,2017-03-02T05:45:00Z,29.2533,-90.6633,1.04,11.31,1111122 
LUMCON,ioos:station:LUMCON:101:1,2017-03-02T06:00:00Z,29.2533,-90.6633,1.05,11.21,1111122 
LUMCON,ioos:station:LUMCON:101:1,2017-03-02T06:15:00Z,29.2533,-90.6633,1.05,11.24,1111122 
LUMCON,ioos:station:LUMCON:101:1,2017-03-02T06:30:00Z,29.2533,-90.6633,1.03,11.17,1111122 
LUMCON,ioos:station:LUMCON:101:1,2017-03-02T06:45:00Z,29.2533,-90.6633,1.02,11.18,1111122 
LUMCON,ioos:station:LUMCON:101:1,2017-03-02T07:00:00Z,29.2533,-90.6633,1.02,11.19,1111122 
LUMCON,ioos:station:LUMCON:101:1,2017-03-02T07:15:00Z,29.2533,-90.6633,1.01,11.21,1111122 
LUMCON,ioos:station:LUMCON:101:1,2017-03-02T07:30:00Z,29.2533,-90.6633,1.0,11.24,1111122 
LUMCON,ioos:station:LUMCON:101:1,2017-03-02T07:45:00Z,29.2533,-90.6633,0.99,11.11,1111122 
LUMCON,ioos:station:LUMCON:101:1,2017-03-02T08:00:00Z,29.2533,-90.6633,0.99,10.92,1111122 
LUMCON,ioos:station:LUMCON:101:1,2017-03-02T08:15:00Z,29.2533,-90.6633,0.98,10.96,1111122 
LUMCON,ioos:station:LUMCON:101:1,2017-03-02T08:30:00Z,29.2533,-90.6633,0.97,11.13,1111122 
LUMCON,ioos:station:LUMCON:101:1,2017-03-02T08:45:00Z,29.2533,-90.6633,0.96,11.07,1111122 
LUMCON,ioos:station:LUMCON:101:1,2017-03-02T09:00:00Z,29.2533,-90.6633,0.94,11.06,1111122 
LUMCON,ioos:station:LUMCON:101:1,2017-03-02T09:15:00Z,29.2533,-90.6633,0.93,10.94,1111122 
LUMCON,ioos:station:LUMCON:101:1,2017-03-02T09:30:00Z,29.2533,-90.6633,0.92,10.94,1111122 
LUMCON,ioos:station:LUMCON:101:1,2017-03-02T09:45:00Z,29.2533,-90.6633,0.92,10.91,1111122 
LUMCON,ioos:station:LUMCON:101:1,2017-03-02T10:00:00Z,29.2533,-90.6633,0.92,10.81,1111122 
LUMCON,ioos:station:LUMCON:101:1,2017-03-02T10:15:00Z,29.2533,-90.6633,0.93,10.66,1111122 
LUMCON,ioos:station:LUMCON:101:1,2017-03-02T10:30:00Z,29.2533,-90.6633,0.94,10.6,1111122 
LUMCON,ioos:station:LUMCON:101:1,2017-03-02T10:45:00Z,29.2533,-90.6633,0.96,10.54,1111122 
LUMCON,ioos:station:LUMCON:101:1,2017-03-02T11:00:00Z,29.2533,-90.6633,0.97,10.58,1111122 
LUMCON,ioos:station:LUMCON:101:1,2017-03-02T11:15:00Z,29.2533,-90.6633,0.98,10.6,1111122 
LUMCON,ioos:station:LUMCON:101:1,2017-03-02T11:30:00Z,29.2533,-90.6633,0.98,10.69,1111122 
LUMCON,ioos:station:LUMCON:101:1,2017-03-02T11:45:00Z,29.2533,-90.6633,0.98,10.79,1111122 
LUMCON,ioos:station:LUMCON:101:1,2017-03-02T12:00:00Z,29.2533,-90.6633,0.98,10.94,1111122 
LUMCON,ioos:station:LUMCON:101:1,2017-03-02T12:15:00Z,29.2533,-90.6633,0.97,10.93,1111122 
LUMCON,ioos:station:LUMCON:101:1,2017-03-02T12:30:00Z,29.2533,-90.6633,0.98,11.05,1111122 
LUMCON,ioos:station:LUMCON:101:1,2017-03-02T12:45:00Z,29.2533,-90.6633,0.98,11.07,1111122 
LUMCON,ioos:station:LUMCON:101:1,2017-03-02T13:00:00Z,29.2533,-90.6633,0.99,11.06,1111122 
LUMCON,ioos:station:LUMCON:101:1,2017-03-02T13:15:00Z,29.2533,-90.6633,0.99,11.07,1111122 
LUMCON,ioos:station:LUMCON:101:1,2017-03-02T13:30:00Z,29.2533,-90.6633,1.0,11.02,1111122 
LUMCON,ioos:station:LUMCON:101:1,2017-03-02T13:45:00Z,29.2533,-90.6633,1.0,10.95,1111122 
LUMCON,ioos:station:LUMCON:101:1,2017-03-02T14:00:00Z,29.2533,-90.6633,1.0,10.86,1111122 
LUMCON,ioos:station:LUMCON:101:1,2017-03-02T14:15:00Z,29.2533,-90.6633,1.0,10.88,1111122 
LUMCON,ioos:station:LUMCON:101:1,2017-03-02T14:30:00Z,29.2533,-90.6633,1.01,10.83,1111122 
LUMCON,ioos:station:LUMCON:101:1,2017-03-02T14:45:00Z,29.2533,-90.6633,1.01,10.73,1111122 
LUMCON,ioos:station:LUMCON:101:1,2017-03-02T15:00:00Z,29.2533,-90.6633,1.02,10.56,1111122 
LUMCON,ioos:station:LUMCON:101:1,2017-03-02T15:15:00Z,29.2533,-90.6633,1.02,10.29,1111122 
LUMCON,ioos:station:LUMCON:101:1,2017-03-02T15:30:00Z,29.2533,-90.6633,1.05,9.93,1111122 
LUMCON,ioos:station:LUMCON:101:1,2017-03-02T15:45:00Z,29.2533,-90.6633,1.07,9.86,1111122 
LUMCON,ioos:station:LUMCON:101:1,2017-03-02T16:00:00Z,29.2533,-90.6633,1.07,9.61,1111122 
LUMCON,ioos:station:LUMCON:101:1,2017-03-02T16:15:00Z,29.2533,-90.6633,1.09,9.37,1111122 
LUMCON,ioos:station:LUMCON:101:1,2017-03-02T16:30:00Z,29.2533,-90.6633,1.1,9.25,1111122 
LUMCON,ioos:station:LUMCON:101:1,2017-03-02T16:45:00Z,29.2533,-90.6633,1.1,9.27,1111122 
LUMCON,ioos:station:LUMCON:101:1,2017-03-02T17:00:00Z,29.2533,-90.6633,1.11,9.26,1111122 
LUMCON,ioos:station:LUMCON:101:1,2017-03-02T17:15:00Z,29.2533,-90.6633,1.11,9.36,1111122 
LUMCON,ioos:station:LUMCON:101:1,2017-03-02T17:30:00Z,29.2533,-90.6633,1.11,9.51,1111122 
LUMCON,ioos:station:LUMCON:101:1,2017-03-02T17:45:00Z,29.2533,-90.6633,1.12,9.26,1111122 
LUMCON,ioos:station:LUMCON:101:1,2017-03-02T18:00:00Z,29.2533,-90.6633,1.13,9.14,1111122 
LUMCON,ioos:station:LUMCON:101:1,2017-03-02T18:15:00Z,29.2533,-90.6633,1.12,9.28,1111122 
LUMCON,ioos:station:LUMCON:101:1,2017-03-02T18:30:00Z,29.2533,-90.6633,1.13,9.49,1111122 
LUMCON,ioos:station:LUMCON:101:1,2017-03-02T18:45:00Z,29.2533,-90.6633,1.13,9.6,1111122 
LUMCON,ioos:station:LUMCON:101:1,2017-03-02T19:00:00Z,29.2533,-90.6633,1.14,9.95,1111122 
LUMCON,ioos:station:LUMCON:101:1,2017-03-02T19:15:00Z,29.2533,-90.6633,1.14,10.59,1111122 
LUMCON,ioos:station:LUMCON:101:1,2017-03-02T19:30:00Z,29.2533,-90.6633,1.15,10.82,1111122 
LUMCON,ioos:station:LUMCON:101:1,2017-03-02T19:45:00Z,29.2533,-90.6633,1.16,10.64,1111122 
LUMCON,ioos:station:LUMCON:101:1,2017-03-02T20:00:00Z,29.2533,-90.6633,1.17,10.54,1111122 
LUMCON,ioos:station:LUMCON:101:1,2017-03-02T20:15:00Z,29.2533,-90.6633,1.18,10.51,1111122 
LUMCON,ioos:station:LUMCON:101:1,2017-03-02T20:30:00Z,29.2533,-90.6633,1.19,10.98,1111122 
LUMCON,ioos:station:LUMCON:101:1,2017-03-02T20:45:00Z,29.2533,-90.6633,1.19,10.95,1111122 
LUMCON,ioos:station:LUMCON:101:1,2017-03-02T21:00:00Z,29.2533,-90.6633,1.19,11.2,1111122 
LUMCON,ioos:station:LUMCON:101:1,2017-03-02T21:15:00Z,29.2533,-90.6633,1.19,11.24,1111122 
LUMCON,ioos:station:LUMCON:101:1,2017-03-02T21:30:00Z,29.2533,-90.6633,1.2,11.54,1111122 
LUMCON,ioos:station:LUMCON:101:1,2017-03-02T21:45:00Z,29.2533,-90.6633,1.2,12.06,1111122 
LUMCON,ioos:station:LUMCON:101:1,2017-03-02T22:00:00Z,29.2533,-90.6633,1.2,12.36,1111122 
LUMCON,ioos:station:LUMCON:101:1,2017-03-02T22:15:00Z,29.2533,-90.6633,1.2,12.49,1111122 
LUMCON,ioos:station:LUMCON:101:1,2017-03-02T22:30:00Z,29.2533,-90.6633,1.2,12.53,1111122 
LUMCON,ioos:station:LUMCON:101:1,2017-03-02T22:45:00Z,29.2533,-90.6633,1.2,12.56,1111122 
LUMCON,ioos:station:LUMCON:101:1,2017-03-02T23:00:00Z,29.2533,-90.6633,1.2,12.53,1111122 
LUMCON,ioos:station:LUMCON:101:1,2017-03-02T23:15:00Z,29.2533,-90.6633,1.2,12.52,1111122 
LUMCON,ioos:station:LUMCON:101:1,2017-03-02T23:30:00Z,29.2533,-90.6633,1.19,12.24,1111122 
LUMCON,ioos:station:LUMCON:101:1,2017-03-02T23:45:00Z,29.2533,-90.6633,1.18,12.07,1111122 
LUMCON,ioos:station:LUMCON:101:1,2017-03-03T00:00:00Z,29.2533,-90.6633,1.17,11.7,1111122 
LUMCON,ioos:station:LUMCON:101:1,2017-03-03T00:15:00Z,29.2533,-90.6633,1.16,11.67,1111122 
LUMCON,ioos:station:LUMCON:101:1,2017-03-03T00:30:00Z,29.2533,-90.6633,1.15,11.59,1111122 
LUMCON,ioos:station:LUMCON:101:1,2017-03-03T00:45:00Z,29.2533,-90.6633,1.14,11.5,1111122 
LUMCON,ioos:station:LUMCON:101:1,2017-03-03T01:00:00Z,29.2533,-90.6633,1.13,11.22,1111122 
LUMCON,ioos:station:LUMCON:101:1,2017-03-03T01:15:00Z,29.2533,-90.6633,1.11,10.89,1111122 
LUMCON,ioos:station:LUMCON:101:1,2017-03-03T01:30:00Z,29.2533,-90.6633,1.11,10.8,1111122 
LUMCON,ioos:station:LUMCON:101:1,2017-03-03T01:45:00Z,29.2533,-90.6633,1.09,10.86,1111122 
LUMCON,ioos:station:LUMCON:101:1,2017-03-03T02:00:00Z,29.2533,-90.6633,1.09,10.7,1111122 
LUMCON,ioos:station:LUMCON:101:1,2017-03-03T02:15:00Z,29.2533,-90.6633,1.08,10.55,1111122 
LUMCON,ioos:station:LUMCON:101:1,2017-03-03T02:30:00Z,29.2533,-90.6633,1.08,10.43,1111122 
LUMCON,ioos:station:LUMCON:101:1,2017-03-03T02:45:00Z,29.2533,-90.6633,1.07,10.29,1111122 
LUMCON,ioos:station:LUMCON:101:1,2017-03-03T03:00:00Z,29.2533,-90.6633,1.07,10.19,1111122 
LUMCON,ioos:station:LUMCON:101:1,2017-03-03T03:15:00Z,29.2533,-90.6633,1.06,10.11,1111122 
LUMCON,ioos:station:LUMCON:101:1,2017-03-03T03:30:00Z,29.2533,-90.6633,1.06,10.05,1111122 
LUMCON,ioos:station:LUMCON:101:1,2017-03-03T03:45:00Z,29.2533,-90.6633,1.05,9.98,1111122 
LUMCON,ioos:station:LUMCON:101:1,2017-03-03T04:00:00Z,29.2533,-90.6633,1.05,9.93,1111122 
LUMCON,ioos:station:LUMCON:101:1,2017-03-03T04:15:00Z,29.2533,-90.6633,1.04,9.86,1111122 
LUMCON,ioos:station:LUMCON:101:1,2017-03-03T04:30:00Z,29.2533,-90.6633,1.03,9.82,1111122 
LUMCON,ioos:station:LUMCON:101:1,2017-03-03T04:45:00Z,29.2533,-90.6633,1.03,9.78,1111122 
LUMCON,ioos:station:LUMCON:101:1,2017-03-03T05:00:00Z,29.2533,-90.6633,1.03,9.75,1111122 
LUMCON,ioos:station:LUMCON:101:1,2017-03-03T05:15:00Z,29.2533,-90.6633,1.01,9.73,1111122 
LUMCON,ioos:station:LUMCON:101:1,2017-03-03T05:30:00Z,29.2533,-90.6633,1.01,9.72,1111122 
LUMCON,ioos:station:LUMCON:101:1,2017-03-03T05:45:00Z,29.2533,-90.6633,1.01,9.73,1111122 
LUMCON,ioos:station:LUMCON:101:1,2017-03-03T06:00:00Z,29.2533,-90.6633,1.0,9.73,1111122 
LUMCON,ioos:station:LUMCON:101:1,2017-03-03T06:15:00Z,29.2533,-90.6633,1.0,9.76,1111122 
LUMCON,ioos:station:LUMCON:101:1,2017-03-03T06:30:00Z,29.2533,-90.6633,1.0,9.79,1111122 
LUMCON,ioos:station:LUMCON:101:1,2017-03-03T06:45:00Z,29.2533,-90.6633,0.99,9.82,1111122 
LUMCON,ioos:station:LUMCON:101:1,2017-03-03T07:00:00Z,29.2533,-90.6633,1.0,9.86,1111122 
LUMCON,ioos:station:LUMCON:101:1,2017-03-03T07:15:00Z,29.2533,-90.6633,1.0,9.84,1111122 
LUMCON,ioos:station:LUMCON:101:1,2017-03-03T07:30:00Z,29.2533,-90.6633,1.0,9.85,1111122 
LUMCON,ioos:station:LUMCON:101:1,2017-03-03T07:45:00Z,29.2533,-90.6633,1.0,9.86,1111122 
LUMCON,ioos:station:LUMCON:101:1,2017-03-03T08:00:00Z,29.2533,-90.6633,1.01,9.86,1111122 
LUMCON,ioos:station:LUMCON:101:1,2017-03-03T08:15:00Z,29.2533,-90.6633,1.01,9.85,1111122 
LUMCON,ioos:station:LUMCON:101:1,2017-03-03T08:30:00Z,29.2533,-90.6633,1.01,9.85,1111122 
LUMCON,ioos:station:LUMCON:101:1,2017-03-03T08:45:00Z,29.2533,-90.6633,1.02,10.41,1111122 
LUMCON,ioos:station:LUMCON:101:1,2017-03-03T09:00:00Z,29.2533,-90.6633,1.02,10.57,1111122 
LUMCON,ioos:station:LUMCON:101:1,2017-03-03T09:15:00Z,29.2533,-90.6633,1.02,10.61,1111122 
LUMCON,ioos:station:LUMCON:101:1,2017-03-03T09:30:00Z,29.2533,-90.6633,1.02,10.6,1111122 
LUMCON,ioos:station:LUMCON:101:1,2017-03-03T09:45:00Z,29.2533,-90.6633,1.02,10.62,1111122 
LUMCON,ioos:station:LUMCON:101:1,2017-03-03T10:00:00Z,29.2533,-90.6633,1.02,10.63,1111122 
LUMCON,ioos:station:LUMCON:101:1,2017-03-03T10:15:00Z,29.2533,-90.6633,1.03,10.5,1111122 
LUMCON,ioos:station:LUMCON:101:1,2017-03-03T10:30:00Z,29.2533,-90.6633,1.04,10.46,1111122 
LUMCON,ioos:station:LUMCON:101:1,2017-03-03T10:45:00Z,29.2533,-90.6633,1.05,10.39,1111122 
LUMCON,ioos:station:LUMCON:101:1,2017-03-03T11:00:00Z,29.2533,-90.6633,1.06,10.34,1111122 
LUMCON,ioos:station:LUMCON:101:1,2017-03-03T11:15:00Z,29.2533,-90.6633,1.06,10.15,1111122 
LUMCON,ioos:station:LUMCON:101:1,2017-03-03T11:30:00Z,29.2533,-90.6633,1.07,10.0,1111122 
LUMCON,ioos:station:LUMCON:101:1,2017-03-03T11:45:00Z,29.2533,-90.6633,1.07,9.66,1111122 
LUMCON,ioos:station:LUMCON:101:1,2017-03-03T12:00:00Z,29.2533,-90.6633,1.08,9.51,1111122 
LUMCON,ioos:station:LUMCON:101:1,2017-03-03T12:15:00Z,29.2533,-90.6633,1.08,9.49,1111122 
LUMCON,ioos:station:LUMCON:101:1,2017-03-03T12:30:00Z,29.2533,-90.6633,1.08,9.43,1111122 
LUMCON,ioos:station:LUMCON:101:1,2017-03-03T12:45:00Z,29.2533,-90.6633,1.09,9.39,1111122 
LUMCON,ioos:station:LUMCON:101:1,2017-03-03T13:00:00Z,29.2533,-90.6633,1.1,9.19,1111122 
LUMCON,ioos:station:LUMCON:101:1,2017-03-03T13:15:00Z,29.2533,-90.6633,1.1,9.15,1111122 
LUMCON,ioos:station:LUMCON:101:1,2017-03-03T13:30:00Z,29.2533,-90.6633,1.11,9.12,1111122 
LUMCON,ioos:station:LUMCON:101:1,2017-03-03T13:45:00Z,29.2533,-90.6633,1.12,9.12,1111122 
LUMCON,ioos:station:LUMCON:101:1,2017-03-03T14:00:00Z,29.2533,-90.6633,1.12,9.23,1111122 
LUMCON,ioos:station:LUMCON:101:1,2017-03-03T14:15:00Z,29.2533,-90.6633,1.13,9.41,1111122 
LUMCON,ioos:station:LUMCON:101:1,2017-03-03T14:30:00Z,29.2533,-90.6633,1.15,9.67,1111122 
LUMCON,ioos:station:LUMCON:101:1,2017-03-03T14:45:00Z,29.2533,-90.6633,1.16,9.89,1111122 
LUMCON,ioos:station:LUMCON:101:1,2017-03-03T15:00:00Z,29.2533,-90.6633,1.17,10.07,1111122 
LUMCON,ioos:station:LUMCON:101:1,2017-03-03T15:15:00Z,29.2533,-90.6633,1.18,10.34,1111122 
LUMCON,ioos:station:LUMCON:101:1,2017-03-03T15:30:00Z,29.2533,-90.6633,1.19,10.57,1111122 
LUMCON,ioos:station:LUMCON:101:1,2017-03-03T15:45:00Z,29.2533,-90.6633,1.2,10.68,1111122 
LUMCON,ioos:station:LUMCON:101:1,2017-03-03T16:00:00Z,29.2533,-90.6633,1.2,10.74,1111122 
LUMCON,ioos:station:LUMCON:101:1,2017-03-03T16:15:00Z,29.2533,-90.6633,1.2,10.81,1111122 
LUMCON,ioos:station:LUMCON:101:1,2017-03-03T16:30:00Z,29.2533,-90.6633,1.21,11.02,1111122 
LUMCON,ioos:station:LUMCON:101:1,2017-03-03T16:45:00Z,29.2533,-90.6633,1.22,11.19,1111122 
LUMCON,ioos:station:LUMCON:101:1,2017-03-03T17:00:00Z,29.2533,-90.6633,1.22,11.28,1111122 
LUMCON,ioos:station:LUMCON:101:1,2017-03-03T17:15:00Z,29.2533,-90.6633,1.23,11.36,1111122 
LUMCON,ioos:station:LUMCON:101:1,2017-03-03T17:30:00Z,29.2533,-90.6633,1.24,11.43,1111122 
LUMCON,ioos:station:LUMCON:101:1,2017-03-03T17:45:00Z,29.2533,-90.6633,1.25,11.61,1111122 